Other Surface Observations
Issued by NWS

Home | Current Version | Previous Version | Text Only | Print | Product List | Glossary On
Versions: 1 2 3 4 5 6 7 8 9 10 11 12 13 14 15 16 17 18 19 20 21 22 23 24 25 26 27 28 29 30 31 32 33 34 35 36 37 38 39 40 41 42 43 44 45 46 47 48 49 50
683
SXUS52 KTAE 041818
OSOTAE
OSOTAE
North Florida/South Alabama/Southwest Georgia Weather Roundup
National Weather Service Tallahassee Florida
200 PM EDT WED MAY 04 2016

Note: "fair" indicates few or no clouds below 12,000 feet with no
significant weather and/or obstructions to visibility.

!FLZ017-115-028-034-025-041900
...North Florida...

CITY           SKY/WX    TMP DP  RH WIND       PRES   REMARKS
TALLAHASSEE    PTSUNNY   80  53  39 NW10      29.76F
APALACHICOLA   MOSUNNY   80  57  45 NW10G20   29.77F
PERRY          MOSUNNY   79  57  46 N7        29.75F
CROSS CITY       N/A     80  63  55 VRB6      29.73F
JACKSONVILLE   CLOUDY    78  62  57 NW6       29.71F
$$

!FLZ112-006-005-002-011-041900
...Florida Panhandle...

CITY           SKY/WX    TMP DP  RH WIND       PRES   REMARKS
MARIANNA       MOSUNNY   76  51  41 N9        29.79F
BONIFAY        FAIR      74  51  44 VRB7G17   29.82F
PANAMA CITY NW FAIR      75  51  43 NW14      29.79F
TYNDALL AFB    PTSUNNY   77  55  45 NW16      29.79F
TYND DRONE APT MOCLDY    76  56  48 NW12      29.79F
DE FUNIAK SPR  FAIR      71  49  46 NW9G17    29.84F
EGLIN AFB      PTSUNNY   74  49  41 N12       29.83F
DESTIN         MOSUNNY   76  54  46 N14       29.83F
HURLBURT       PTSUNNY   74  47  38 NW16      29.82F
CRESTVIEW      MOSUNNY   74  48  39 VRB7G20   29.86F
PENSACOLA      MOSUNNY   73  49  42 NW13      29.85F
$$

!ALZ063-066-041900
...South Alabama...

CITY           SKY/WX    TMP DP  RH WIND       PRES   REMARKS
DOTHAN         MOSUNNY   73  46  38 NW16G23   29.85F
OZARK CAIRNS   PTSUNNY   74  49  41 NW9       29.82F
FT RUCKER HELI SUNNY     75  46  35 N10G20    29.82F
RUCKER HELI 3  FAIR      71  46  40 W8G20     29.84F
RUCKER HELI 2  NOT AVBL
FLORALA APT    MOSUNNY   71  48  43 VRB7      29.86F
ANDALUSIA      MOSUNNY   76  48  37 NW13G18   29.85F
TROY           PTSUNNY   70  48  45 NW13G20   29.85F
EUFALA         FAIR      74  48  39 NW8       29.80F
MOBILE         CLOUDY    71  50  47 N10G17    29.90F
$$

!GAZ120>161-041900
...Southwest and South Central Georgia...

CITY           SKY/WX    TMP DP  RH WIND       PRES   REMARKS
THOMASVILLE    FAIR      73  54  49 NW9G17    29.78F
BAINBRIDGE     MOSUNNY   73  52  46 N9        29.79F
MOODY AFB      PTSUNNY   77  53  43 NW12      29.74F
VALDOSTA       MOSUNNY   77  56  48 VRB6      29.75F
MOULTRIE       MOSUNNY   73  52  46 N9        29.77F
BLAKELY        SUNNY     73  54  49 NW3       29.81F
ALBANY         SUNNY     75  47  36 NW9G18    29.79F
TIFTON         FAIR      73  50  43 NW12      29.76F
FITZGERALD     FAIR      76  48  37 W9G20     29.79F
CORDELE        FAIR      75  48  38 NW5G17    29.79F
AMERICUS       FAIR      70  39  32 NW7       29.81F
HOMERVILLE     FAIR      75  55  50 NW8       29.75F
$$

!GMZ750-755-770-775-041900
...Coastal and Buoy Obs...

STATION/POSITION TIME  TEMP    WIND        PRES    VSBY  WAVE
                       AIR SEA DIR/SP/G                  HT/PER
                 (UTC) (F)     (DEG/KT/KT) (MB)    (MI)  (FT/S)
KEATON BEACH     1800   76     300/  7/  9 1006.8F
CEDAR KEY        1800   72     250/ 10/ 13 1007.5F
C TOWER          1800   72     350/  7/  8 1008.6F
APALACHICOLA BUO 1750   74 76   10/ 16/ 19 1007.4F         3/ 4
PANAMA CITY BUOY 1750   72 78   10/ 12/ 14 1009.6F         4/ 6
MOBILE BUOY      1800   67 76  350/ 16/ 19 1012.6R
ORANGE BCH AL BU 1750   68 76  330/ 10/ 12 1010.7F         2/ 3
$$




USA.gov is the U.S. government's official web portal to all federal, state and local government web resources and services.